Theta_e
316 315 316 318 318 316 316 317 316 316 316 316 316 316 316 316 316 316 316 316 316 317 317 318 318 318 318 319 319 319 320 314 314 314 313 315 322 333 333 330 331 332 327 319 316 314 310 310 309 311 308 307 307 305 308 308 308 307 297 294 291 293 292 297 296 298 301 298 300 302 303 301 299 303 305 307 305 305 305 305 308 309 309 309 311 313 314 314
316 315 316 317 318 317 317 317 316 316 316 316 316 316 316 316 317 316 316 316 316 316 317 317 318 318 318 318 319 319 317 314 312 314 314 324 333 332 331 333 332 330 328 315 314 312 309 307 308 309 306 302 310 304 309 304 308 299 296 295 291 295 297 301 300 301 299 298 300 302 303 301 300 302 304 300 300 302 301 303 305 305 307 309 311 311 312 312
315 315 315 316 317 318 317 317 316 316 315 315 315 316 317 316 316 316 316 316 317 316 317 317 317 318 318 318 318 319 316 312 314 311 314 333 334 332 332 331 331 331 319 316 315 311 308 308 308 307 305 301 304 300 305 302 304 301 297 292 294 299 299 301 302 301 302 302 300 300 302 301 302 302 305 300 299 301 299 300 302 303 304 306 309 310 311 313
316 316 316 316 316 317 317 317 317 316 315 315 315 315 315 315 315 316 316 316 317 316 316 317 317 317 318 318 318 317 314 313 306 311 321 331 331 330 331 329 331 330 319 318 315 311 311 310 308 306 303 300 301 303 299 303 299 301 297 293 295 299 297 300 301 301 301 301 300 300 301 300 302 302 302 300 298 298 300 302 302 302 304 306 307 308 309 312
316 316 316 315 316 318 317 317 317 316 315 315 314 314 314 315 315 315 316 316 316 316 317 316 316 316 317 318 318 316 312 302 303 315 329 331 331 330 330 329 331 323 319 317 313 311 310 308 307 305 302 297 300 300 299 301 303 300 297 299 299 299 295 299 300 301 301 302 300 300 297 297 302 302 300 299 296 296 299 303 305 305 306 306 306 307 308 308
316 316 316 316 317 318 318 317 317 316 315 314 314 314 314 314 314 316 316 316 315 315 315 316 315 315 316 317 315 314 308 289 313 315 327 333 332 332 330 331 331 324 319 313 310 310 308 306 304 300 299 297 297 295 299 300 303 294 298 298 299 300 297 301 301 301 300 299 298 297 299 301 299 298 301 300 298 300 304 305 305 305 306 307 308 308 307 307
316 316 317 317 318 318 318 317 317 315 313 313 313 313 313 314 315 315 315 315 315 315 315 315 315 315 315 316 314 312 307 305 313 324 331 332 332 332 332 331 331 324 318 310 309 307 307 304 303 300 299 298 298 298 300 300 302 298 294 298 298 300 298 301 299 300 299 299 297 299 300 297 297 294 300 298 301 303 304 305 305 306 307 307 305 306 306 306
317 316 316 317 318 317 317 316 316 314 313 312 313 313 313 314 314 315 315 315 315 314 314 315 315 314 315 312 309 308 307 306 313 326 329 332 331 331 332 324 318 316 312 308 308 309 306 303 301 303 299 296 298 298 300 298 299 296 295 298 298 299 300 300 299 299 299 299 299 299 296 296 297 297 298 297 300 302 303 304 304 305 305 305 304 304 305 304
317 317 316 316 317 317 317 316 315 314 313 313 313 313 313 314 314 314 314 314 314 313 314 314 314 314 315 311 306 302 302 315 319 322 329 324 326 322 324 314 315 312 310 310 310 309 310 305 304 304 297 298 301 298 299 296 293 297 297 298 298 298 299 299 299 299 299 299 299 297 296 297 299 300 296 298 300 302 303 302 303 303 302 303 303 304 304 304
317 317 317 317 318 317 316 316 316 314 314 314 313 313 313 313 313 314 314 313 313 313 313 314 314 314 310 308 306 298 314 316 322 322 323 322 323 320 318 314 314 312 309 309 311 311 308 305 304 306 303 300 301 298 300 298 295 300 298 298 297 298 298 299 298 299 299 299 299 296 295 296 299 297 293 300 301 302 302 301 302 302 301 302 303 303 304 304
318 317 317 318 318 317 316 316 316 315 314 314 313 313 313 313 313 313 313 313 313 313 313 313 314 312 307 309 301 297 320 322 318 317 318 319 317 318 316 313 315 312 310 310 309 310 309 308 311 308 306 298 301 299 299 299 301 300 299 298 298 298 298 299 299 298 299 297 300 298 296 297 298 297 294 298 301 302 300 301 301 301 301 302 302 303 304 305
318 318 318 318 317 317 317 316 316 316 315 314 314 313 313 313 313 313 313 313 312 312 313 313 313 310 308 304 301 303 321 314 315 318 321 316 316 318 316 315 315 313 311 308 309 312 313 313 313 307 297 306 296 301 300 303 301 300 299 293 295 297 296 298 297 298 299 297 299 299 295 294 294 293 298 300 302 301 300 300 300 300 301 302 303 303 303 304
318 318 318 318 317 317 317 317 316 316 315 314 313 312 312 312 312 312 312 311 312 312 312 312 311 310 305 297 302 312 316 317 317 314 321 320 319 318 317 319 320 316 313 309 308 312 316 312 311 303 306 302 299 295 302 303 301 300 299 296 294 294 293 298 300 299 297 298 299 298 284 288 292 295 297 299 299 300 299 299 299 300 300 301 302 302 303 303
318 318 318 317 317 317 317 316 316 315 314 313 312 312 312 312 311 312 311 311 311 311 311 312 310 306 302 298 309 318 316 316 316 312 311 315 315 315 314 319 319 318 317 314 314 312 313 310 312 308 309 302 299 307 301 300 301 294 297 297 291 289 290 298 298 297 295 298 297 296 285 288 292 295 298 299 299 298 296 297 298 299 300 300 301 301 301 301
318 318 317 317 317 316 316 316 315 314 313 312 311 311 311 310 311 311 311 310 310 311 311 311 310 304 298 301 312 314 319 316 310 311 313 310 311 310 309 311 313 316 314 314 313 314 314 312 310 303 299 306 304 300 295 295 297 296 291 288 292 289 292 296 299 297 292 295 296 294 285 287 291 294 297 298 298 298 296 296 297 298 298 299 299 299 300 301
317 317 317 317 316 316 315 315 314 313 312 311 310 310 310 309 309 310 311 309 310 311 310 305 305 304 299 295 305 317 314 307 307 311 313 314 310 307 311 310 313 314 315 312 313 314 311 311 301 302 301 303 298 294 292 292 293 295 291 288 288 290 290 291 295 296 296 294 295 292 286 290 290 294 296 297 297 297 296 296 297 298 299 299 299 299 299 300
318 317 317 316 316 315 315 314 313 312 311 310 309 309 309 309 309 310 309 310 309 311 307 303 308 306 294 309 313 303 305 310 316 312 312 312 311 311 312 309 308 308 311 311 311 310 309 304 305 302 302 297 297 296 289 288 287 290 293 288 290 288 289 287 294 296 295 293 290 293 289 289 291 294 296 298 298 297 297 297 298 298 298 299 299 299 299 300
318 317 317 316 316 315 315 314 312 312 311 309 308 308 307 309 309 307 307 308 309 307 308 309 307 302 298 306 299 302 314 311 311 312 311 312 313 312 311 306 309 307 307 304 307 302 304 297 301 293 296 295 295 292 287 283 287 287 288 287 288 289 289 288 288 293 294 293 290 290 290 291 293 295 296 298 299 299 298 299 299 300 299 299 299 299 300 300
317 317 317 316 316 315 315 313 312 312 311 309 308 310 311 311 308 305 302 304 300 298 294 296 298 288 291 302 307 312 312 314 315 312 308 310 313 314 312 312 309 303 299 298 299 299 301 297 299 293 289 291 292 292 290 291 293 291 291 288 288 286 287 287 292 295 294 292 291 290 289 290 292 294 296 298 299 299 299 300 300 300 300 300 300 300 300 300
317 316 316 316 315 314 314 313 312 312 310 307 305 304 302 298 298 297 301 301 298 300 301 303 301 305 305 310 306 310 313 315 306 308 311 312 309 307 307 307 305 304 299 294 297 297 300 291 289 288 291 293 295 296 295 295 295 294 292 289 288 287 289 292 293 296 296 290 290 290 291 291 292 294 296 298 299 299 298 298 299 299 300 300 300 300 300 300
316 316 316 315 315 314 313 312 312 311 309 307 304 299 292 296 293 293 296 298 300 301 300 302 303 301 301 308 308 306 305 305 310 308 309 313 310 305 301 303 299 294 296 299 297 302 299 290 290 293 295 296 296 297 297 296 295 293 290 288 287 288 287 292 293 296 293 290 289 291 290 291 293 296 297 299 298 297 298 298 299 299 300 300 300 300 300 301
316 316 315 315 315 314 313 312 312 311 309 306 302 296 297 298 301 301 297 290 298 301 301 301 303 302 307 307 312 311 311 304 303 307 311 311 306 300 301 299 296 293 297 297 297 292 290 289 293 296 298 298 298 297 297 294 292 292 289 288 287 288 291 294 295 295 294 290 288 291 290 291 293 295 298 298 298 299 300 300 299 298 298 299 300 299 300 300
316 315 315 315 314 314 313 313 311 310 305 301 298 298 297 302 306 307 301 294 290 298 299 300 298 298 299 306 310 313 302 297 297 304 305 308 303 301 301 296 295 296 297 296 291 290 287 290 295 297 297 296 296 296 296 293 293 289 289 286 285 289 289 286 294 295 295 292 290 291 290 292 295 297 298 300 299 300 302 302 301 301 298 298 298 298 299 299
315 315 315 314 314 313 313 312 311 307 303 301 299 299 305 306 305 304 297 289 289 296 297 300 301 300 298 298 307 305 299 299 299 299 309 306 300 303 301 297 295 295 293 295 294 291 290 296 300 301 298 296 294 295 294 291 289 291 290 289 288 288 290 290 291 293 294 294 294 292 290 290 293 292 295 298 300 301 302 301 300 299 301 301 302 300 302 299
315 315 314 314 313 313 312 311 305 302 304 302 300 304 305 307 306 304 296 292 292 292 303 301 305 303 304 313 310 302 302 301 300 307 307 306 303 300 299 303 298 292 294 296 295 293 293 297 299 297 296 296 294 291 292 291 287 288 292 291 291 292 292 293 293 290 287 286 292 290 282 284 290 292 294 297 297 294 297 297 298 298 299 299 298 298 300 302
315 315 314 314 313 313 313 303 302 305 302 298 301 304 305 306 305 305 296 284 280 293 298 292 305 298 310 301 305 303 302 294 302 305 308 308 311 302 301 297 299 291 295 295 294 294 294 299 297 294 294 293 293 291 293 292 287 284 288 295 294 293 292 290 289 288 281 280 288 293 282 280 290 290 292 295 295 293 296 296 296 298 299 300 298 298 298 300
314 314 314 314 313 313 303 297 306 304 296 298 304 305 305 304 307 301 290 284 280 292 290 299 299 298 306 303 301 301 284 288 303 307 305 309 304 308 297 294 298 297 300 298 292 289 296 296 295 294 294 292 291 289 293 293 288 285 294 294 294 292 290 290 290 286 284 289 290 291 288 281 282 288 292 294 294 292 293 295 294 295 295 296 297 298 299 298
311 314 314 314 313 312 304 304 302 298 299 302 305 304 304 303 303 298 288 276 277 299 291 294 300 307 305 302 302 294 295 300 295 301 308 309 308 304 298 295 294 294 297 295 284 293 296 293 294 292 292 290 290 293 295 296 291 290 293 295 292 292 291 290 286 285 286 284 282 285 287 280 280 288 294 294 291 291 291 292 293 294 294 294 295 297 296 297
311 311 314 314 313 312 308 304 302 299 302 303 304 303 302 303 298 291 282 273 291 293 308 293 309 305 301 302 297 299 296 301 295 301 307 307 310 303 294 296 297 296 298 295 288 292 296 295 296 296 293 289 293 294 295 295 291 294 295 295 294 292 291 290 284 285 285 281 280 281 285 278 281 288 290 292 289 289 290 291 292 293 293 294 295 295 296 296
310 311 312 314 312 308 305 306 303 304 303 303 302 302 301 298 294 282 277 271 295 285 297 298 297 294 298 293 293 296 293 298 299 299 303 300 302 304 301 303 298 295 293 296 294 293 294 297 297 295 293 295 294 294 295 294 295 293 294 291 290 290 287 286 286 284 281 277 281 285 286 282 276 285 288 287 289 290 290 290 292 293 293 295 295 295 296 296
309 311 310 314 306 305 304 299 302 302 303 302 302 301 299 295 284 278 272 282 292 293 295 294 292 298 293 291 288 295 295 297 295 297 294 299 297 300 298 294 299 292 290 291 291 293 294 295 292 294 298 297 295 292 293 293 294 293 287 286 285 284 285 283 283 283 276 276 282 285 286 286 275 281 288 291 293 292 290 289 289 291 293 294 294 295 296 296
308 309 311 310 311 307 300 297 301 302 302 302 301 297 294 280 285 276 278 298 283 289 288 290 295 293 292 295 293 292 290 294 295 294 292 292 291 291 291 286 288 281 282 284 284 291 289 291 295 295 297 295 292 289 290 291 291 288 285 285 278 277 280 276 280 275 276 276 280 282 285 281 281 286 290 292 293 291 291 291 291 292 293 294 294 295 295 296
307 308 309 309 311 304 305 305 302 302 303 302 298 296 285 279 274 281 282 286 282 292 289 299 294 293 293 291 290 293 294 289 295 293 296 293 291 291 293 291 292 288 280 286 283 285 287 293 293 293 293 296 294 286 284 282 286 285 282 281 278 274 274 272 276 279 279 281 281 281 285 279 284 288 292 292 292 291 291 292 292 293 294 294 295 296 295 296
304 307 306 308 309 308 306 303 302 302 301 300 294 287 283 277 278 290 284 287 286 294 296 294 295 294 291 288 292 294 287 294 293 292 294 289 290 287 290 292 293 290 289 287 283 284 281 283 289 291 286 294 293 291 290 287 286 287 288 285 281 279 276 272 276 274 274 278 281 283 279 277 278 285 292 293 291 291 291 292 293 294 295 296 295 295 295 295
304 304 306 306 307 309 304 303 302 303 301 295 288 284 277 277 285 282 283 286 288 293 289 295 292 291 289 291 293 295 293 287 294 292 291 290 287 287 288 290 292 293 291 285 288 286 286 285 288 292 292 294 291 294 294 292 287 288 289 289 282 281 284 278 281 278 277 277 276 278 278 281 284 291 294 294 291 291 291 291 292 292 294 294 294 294 295 296
302 302 306 303 304 306 303 303 303 303 297 291 284 279 279 284 282 288 286 293 291 287 290 292 292 287 286 287 290 291 296 287 292 289 288 290 291 289 292 292 292 293 290 286 287 282 285 282 288 291 293 290 290 293 294 294 280 285 287 281 283 288 287 281 281 279 278 276 276 280 281 286 290 292 294 293 289 289 289 290 290 291 292 294 294 293 294 296
298 300 297 301 303 305 304 303 303 300 295 288 283 278 285 286 290 292 294 292 291 292 289 283 285 285 283 284 287 288 289 290 288 288 284 290 287 291 291 293 297 294 294 293 286 290 284 284 286 287 285 289 290 290 292 293 291 286 280 284 289 290 287 281 275 277 276 273 276 281 277 279 282 279 290 289 287 289 289 289 290 290 291 291 292 293 293 294
296 297 297 298 303 305 304 304 302 298 293 286 281 285 287 285 293 292 296 295 294 293 288 285 285 289 284 285 286 287 289 286 285 287 284 288 284 296 291 292 296 296 296 297 288 287 289 281 284 286 286 288 290 290 288 291 291 287 283 286 284 277 276 281 278 269 270 271 273 278 280 280 281 283 287 286 287 288 289 289 289 290 290 291 291 292 293 294
296 294 289 297 305 305 303 304 300 294 287 282 281 283 287 288 293 293 295 295 296 292 287 287 285 287 286 285 286 288 288 283 288 285 283 286 284 294 293 295 292 297 297 296 290 288 289 282 281 284 286 287 286 285 279 282 289 288 289 285 283 281 279 278 279 277 278 271 273 272 278 277 287 285 288 287 290 289 289 289 289 290 293 293 292 293 294 294
291 288 286 301 306 305 304 302 295 290 284 279 283 285 290 287 290 293 295 295 290 291 289 288 288 286 287 286 289 285 288 287 288 286 286 287 288 299 294 297 293 293 296 297 292 292 285 287 278 282 283 287 279 284 282 285 283 282 281 280 282 282 283 281 281 278 276 273 273 273 272 278 287 290 289 289 290 290 290 290 291 293 294 294 295 295 295 296
294 288 287 306 305 305 302 296 288 283 282 286 287 286 288 287 292 292 295 296 293 296 292 290 289 286 287 285 286 289 287 287 287 286 287 286 289 284 296 295 296 291 294 292 291 288 285 284 281 282 279 281 283 288 288 289 289 286 284 282 284 281 278 275 275 282 278 276 273 274 274 278 289 291 290 289 289 291 291 291 292 293 292 293 295 296 296 297
288 280 284 304 304 303 295 285 285 287 285 283 284 287 286 294 288 291 292 294 293 290 293 291 291 289 287 286 288 288 287 286 286 286 287 286 290 290 292 297 294 295 292 287 289 293 288 286 283 282 281 283 286 286 286 286 284 283 286 283 287 284 282 278 274 275 278 278 278 276 274 277 288 290 289 290 289 289 290 290 292 291 291 292 294 295 295 295
286 282 299 301 304 300 290 284 287 285 283 286 291 290 292 292 290 291 290 291 289 292 290 288 289 288 288 288 287 286 288 284 287 285 287 288 288 292 293 294 295 293 293 287 290 288 293 284 282 283 285 282 282 285 286 285 286 284 283 284 284 283 285 283 280 278 277 276 276 275 274 279 288 289 290 290 291 291 290 290 290 290 292 293 292 293 294 294
287 286 289 300 303 299 287 280 281 283 284 286 287 287 292 290 290 287 288 290 289 287 288 288 289 291 288 290 288 285 289 283 288 287 286 289 287 295 292 293 295 290 290 288 287 291 284 285 283 279 279 280 279 281 281 282 282 281 282 285 286 286 286 285 284 281 277 279 278 276 274 275 288 289 290 290 290 290 290 290 290 290 291 292 292 292 293 294
287 288 289 294 298 295 283 286 286 284 285 284 284 284 285 288 291 291 291 289 292 290 289 287 289 290 288 289 286 286 288 287 283 289 289 288 289 291 293 293 294 291 293 293 292 293 286 284 283 277 275 273 273 274 275 277 280 282 283 285 286 286 285 282 280 280 277 278 280 278 278 283 287 288 290 291 290 290 291 291 291 291 291 292 292 293 294 294
282 277 285 287 292 289 288 290 288 286 285 284 283 284 286 284 289 292 292 290 293 291 291 290 290 290 288 287 284 285 285 288 286 284 287 285 287 287 288 292 292 292 293 293 292 291 284 286 285 283 281 279 281 284 287 286 283 280 282 284 285 287 287 286 283 280 278 278 278 282 282 283 284 286 288 290 291 291 292 293 292 292 291 292 291 292 293 293
286 280 281 280 286 286 284 287 285 285 283 287 282 284 283 285 287 289 292 286 291 291 289 290 289 287 285 287 284 284 286 285 286 285 285 286 287 286 286 288 290 290 293 291 292 289 285 283 285 285 285 285 286 286 287 287 283 284 283 283 285 285 286 285 282 280 283 279 278 283 285 283 285 287 288 288 290 292 292 292 292 291 292 293 294 292 294 294
279 282 287 287 283 278 281 282 285 285 286 286 284 287 285 284 285 283 289 291 291 292 286 287 289 289 288 286 286 283 283 284 284 283 286 286 286 286 285 286 286 289 291 288 292 288 285 282 285 284 284 286 287 287 288 287 286 286 286 285 283 285 285 283 283 285 285 281 279 282 284 283 286 288 290 291 291 292 292 293 293 294 293 293 293 292 293 293
286 284 285 288 281 282 284 284 287 285 285 286 284 285 283 284 284 286 286 287 289 287 290 283 285 288 289 289 287 284 285 281 281 286 285 285 285 285 283 285 286 288 287 286 287 287 286 283 285 285 284 285 285 286 287 285 286 286 285 286 287 285 285 286 285 286 286 284 286 286 285 285 288 288 290 292 293 293 294 294 294 294 294 293 291 292 293 293
281 282 280 286 285 283 283 283 283 284 282 285 281 282 285 284 284 286 288 286 284 286 290 286 286 289 289 289 288 285 286 287 286 284 287 286 285 286 285 286 283 285 286 285 286 286 287 282 287 285 283 283 285 286 286 286 285 284 286 286 286 286 285 286 286 286 286 286 287 286 285 285 290 291 292 294 294 295 295 294 294 294 294 294 293 292 291 292
285 287 285 281 277 280 283 282 282 281 280 282 282 283 285 284 284 287 286 290 288 285 287 285 288 288 289 288 288 288 290 290 290 290 290 289 284 289 286 285 288 283 285 284 285 284 286 282 285 284 281 280 284 284 284 285 284 283 283 284 285 284 283 284 284 286 284 283 285 284 283 284 288 292 293 291 293 293 293 293 294 294 294 293 291 291 291 291
287 286 286 283 277 281 279 281 282 281 277 282 283 283 284 284 288 288 284 289 290 290 289 290 289 288 286 287 286 288 292 292 292 293 293 293 293 291 291 290 291 286 285 284 286 284 285 284 282 282 279 279 283 284 283 283 282 280 281 284 285 286 286 287 287 288 288 288 284 282 283 289 290 291 289 290 291 293 293 293 293 292 292 292 291 290 291 291
Wind_Speed
6 5 6 5 8 7 6 6 6 7 8 8 8 9 9 10 10 11 11 11 11 12 12 14 15 16 17 18 19 19 20 11 13 10 11 13 8 11 10 12 7 8 7 4 6 6 6 7 8 7 4 3 3 5 5 5 4 2 5 6 10 9 11 7 11 10 10 12 11 13 11 11 14 9 9 9 13 13 14 15 12 12 14 13 11 13 13 9
8 6 7 5 7 7 7 6 5 5 6 8 8 9 10 10 10 11 12 12 12 11 12 13 14 15 17 18 19 20 17 13 13 13 17 10 12 9 10 9 8 8 6 5 7 7 6 7 5 6 4 5 3 6 2 4 6 4 4 7 12 7 9 9 11 13 11 11 12 14 13 13 13 13 8 11 14 14 16 15 14 17 13 11 11 14 19 18
7 6 7 7 5 7 7 7 7 6 5 6 7 8 9 10 10 11 11 11 12 12 12 13 14 15 16 17 19 19 15 13 12 15 11 7 12 10 11 9 10 8 8 5 4 5 5 6 7 6 5 6 4 7 7 5 2 6 6 9 10 8 11 13 13 15 12 13 14 15 14 14 13 11 9 13 16 15 19 15 14 17 18 13 13 14 11 10
7 7 6 7 7 7 8 7 7 7 6 5 6 8 10 11 11 11 11 11 11 11 12 13 13 14 15 17 17 14 11 11 9 1 3 4 12 12 12 10 10 9 7 7 5 5 5 5 6 6 5 6 5 7 7 2 3 2 7 9 10 11 12 10 12 14 15 14 15 14 12 15 13 12 11 14 18 18 16 16 16 19 17 16 14 13 12 9
8 8 8 6 5 6 7 8 8 5 5 7 7 7 10 11 12 11 11 11 11 11 12 13 13 14 15 16 17 10 9 6 1 6 5 8 10 10 11 10 9 7 7 5 4 6 6 7 4 5 5 4 6 6 8 8 6 5 10 10 12 13 13 14 14 15 15 15 15 14 13 13 13 13 11 16 18 14 10 12 13 15 14 14 13 10 9 9
10 10 10 6 6 6 7 8 7 7 5 5 7 9 11 11 11 11 11 11 12 12 11 12 13 13 15 16 12 8 2 4 2 3 6 10 10 10 9 9 9 7 6 6 6 5 5 7 6 5 5 6 7 7 5 7 7 10 10 14 14 13 14 11 13 11 11 12 14 11 10 10 12 14 12 15 18 15 12 14 17 17 17 19 16 15 15 15
10 9 9 7 6 7 7 8 7 4 3 2 5 8 11 10 9 10 11 11 10 11 11 12 13 13 14 15 10 5 6 9 4 3 7 9 11 10 9 9 7 5 7 7 7 6 6 7 7 7 7 7 8 9 11 10 8 11 12 11 14 11 15 15 16 14 13 15 14 12 11 13 13 17 10 17 19 19 17 18 19 17 16 18 20 19 19 18
9 9 9 6 7 7 7 7 6 5 3 3 4 5 8 10 9 9 10 10 10 10 11 12 12 12 13 8 7 5 9 12 13 9 8 8 9 9 8 7 7 5 8 8 6 5 6 8 8 7 8 8 6 9 7 9 7 10 11 10 12 12 12 12 12 12 13 15 15 15 16 16 15 15 12 21 19 18 18 17 18 17 17 18 18 18 17 17
9 10 8 7 7 7 9 8 8 6 4 4 5 4 6 9 9 8 9 9 10 11 11 11 12 11 12 6 4 7 10 6 10 11 11 10 9 8 8 5 8 7 7 7 6 6 3 4 8 7 8 9 6 9 6 6 7 6 11 10 9 12 13 13 14 16 17 12 12 16 17 16 15 15 21 24 20 20 18 18 18 18 18 19 19 18 18 19
11 10 9 8 6 7 8 9 8 8 7 6 6 7 6 6 8 9 9 9 10 10 10 11 11 11 8 5 3 7 2 5 4 10 11 8 8 9 8 8 9 8 7 7 4 3 4 5 6 6 7 8 8 10 8 10 10 8 13 14 15 14 14 13 16 18 17 14 15 16 18 17 12 8 15 13 16 17 17 18 19 20 20 20 19 17 17 19
12 11 11 8 6 8 9 10 9 9 8 6 6 7 8 7 9 9 8 8 9 9 9 10 10 9 6 5 6 10 1 0 1 2 6 6 7 8 8 8 7 7 8 4 5 5 5 7 4 2 2 7 6 9 7 5 8 10 12 14 14 13 14 17 18 21 16 13 14 17 19 16 14 11 19 17 16 16 15 16 18 17 17 17 19 19 17 17
12 12 10 8 7 7 10 10 11 10 8 8 8 9 8 6 6 8 9 9 9 9 9 8 11 4 6 8 11 9 1 4 3 2 2 4 7 8 7 7 5 6 5 7 5 4 3 3 2 1 4 4 5 7 8 3 9 9 10 13 15 15 17 16 17 17 14 13 11 10 14 14 8 14 19 19 17 16 16 18 18 17 16 16 17 17 14 15
11 11 9 9 9 10 10 10 10 9 9 8 7 6 5 6 7 7 8 8 9 10 9 10 5 4 5 10 14 16 13 8 3 3 1 3 4 4 2 3 2 3 3 5 4 7 1 0 0 5 5 7 9 6 8 14 10 11 11 11 15 13 13 13 14 11 6 6 5 3 9 6 9 14 14 13 13 15 20 18 15 14 15 14 15 14 14 14
11 11 11 10 11 10 9 10 9 7 6 5 5 4 4 5 7 8 8 9 10 10 9 9 5 4 6 10 3 3 7 7 11 9 9 5 7 3 4 1 1 2 3 2 3 2 4 1 2 4 4 7 5 5 11 8 9 9 12 9 9 10 10 7 5 3 5 2 3 3 8 15 7 12 14 14 15 11 10 10 15 16 15 14 13 14 14 14
11 11 11 10 9 8 9 9 8 6 5 5 4 3 4 5 6 7 10 12 12 9 10 7 5 5 6 9 7 17 20 10 11 12 7 9 8 6 7 5 2 1 0 1 1 1 0 2 1 3 5 5 8 9 8 7 6 7 5 6 5 8 10 4 5 8 7 2 3 3 11 15 13 11 9 10 12 12 13 12 11 12 12 13 13 13 14 14
12 12 11 10 9 9 9 9 7 6 4 3 2 3 5 6 8 11 13 12 11 11 6 5 5 6 8 13 3 5 4 7 13 13 8 6 8 8 6 5 4 2 1 1 2 1 1 1 4 2 4 6 4 4 8 6 6 8 8 8 9 6 7 8 2 6 6 3 5 8 12 14 17 8 8 7 8 12 15 16 16 17 17 15 12 12 12 12
13 13 12 10 10 10 11 8 7 5 4 2 2 5 5 8 10 11 11 9 6 4 3 4 3 6 4 2 4 3 5 7 2 4 8 8 7 6 5 4 3 3 3 2 2 2 2 2 2 2 2 5 4 5 7 8 7 7 6 6 4 8 8 8 8 8 2 4 7 8 11 15 19 21 17 16 14 15 16 17 16 16 15 15 13 12 12 13
14 13 12 10 10 11 12 10 9 8 6 5 4 4 7 11 13 11 8 6 5 4 5 6 6 5 13 5 6 2 1 5 4 3 6 6 6 4 3 5 3 4 4 3 2 4 4 3 3 5 2 6 5 6 6 8 4 4 6 7 7 6 8 12 10 3 6 6 11 9 13 18 20 20 20 18 14 13 16 16 15 14 13 14 14 14 14 14
13 13 11 10 9 11 11 12 11 10 9 5 4 10 12 14 7 4 5 4 4 3 2 7 7 7 2 4 8 3 2 3 5 4 4 5 3 3 3 3 3 7 4 4 3 7 4 3 3 4 8 7 9 10 11 11 8 10 8 6 8 9 9 9 10 11 9 12 11 11 13 18 21 21 21 20 15 12 14 15 13 13 13 13 12 12 12 12
13 13 12 10 11 12 11 11 11 10 8 4 3 5 6 3 4 4 6 9 11 9 4 4 14 5 5 2 6 3 2 2 4 5 6 4 7 7 5 4 4 4 4 4 6 8 6 6 8 10 10 9 10 13 14 13 11 10 7 6 8 10 12 10 11 9 6 6 8 8 14 19 21 21 21 21 17 12 11 12 11 10 10 11 12 11 10 11
14 13 12 11 12 13 12 12 11 10 8 2 3 3 3 5 4 2 1 11 15 14 17 10 14 15 7 5 3 5 3 3 4 4 7 6 5 10 7 6 6 7 8 7 5 2 7 8 12 11 10 11 11 10 9 8 8 7 5 6 9 8 11 9 11 9 3 1 10 10 15 20 21 19 19 19 17 14 11 9 9 11 11 11 11 10 8 9
14 14 12 13 12 13 13 13 12 10 8 2 3 5 5 4 2 1 3 7 9 18 18 18 13 13 12 12 2 4 2 2 6 6 4 7 8 9 7 9 10 9 7 7 4 3 7 14 11 10 10 9 10 10 7 5 5 5 6 6 8 9 9 12 11 3 1 2 10 11 17 21 22 20 19 17 17 10 4 2 4 5 5 4 3 3 4 4
15 14 14 12 12 13 14 13 12 11 4 4 4 6 7 0 3 1 3 9 15 11 14 15 16 17 18 11 6 3 7 11 9 11 10 7 8 9 9 10 9 7 7 11 11 6 8 11 15 15 11 9 9 9 4 3 4 5 6 6 11 8 6 7 4 7 9 6 12 13 14 18 22 16 12 11 2 0 3 1 3 3 4 5 5 4 3 4
16 15 14 13 13 13 13 12 11 6 5 6 6 8 2 3 1 2 5 7 7 6 14 19 20 13 15 11 8 12 15 7 7 11 11 11 11 5 6 11 9 9 11 11 14 12 14 3 3 2 9 12 11 7 5 5 7 6 9 9 9 7 8 7 9 9 10 9 5 10 13 13 8 4 10 12 2 3 2 1 2 3 4 3 3 3 2 3
16 16 15 14 14 14 12 11 6 5 3 5 7 4 5 1 0 3 5 6 6 8 11 9 7 8 6 3 9 12 9 8 9 2 12 13 10 5 7 4 5 11 9 10 11 14 16 13 7 3 3 5 6 6 7 5 8 5 7 8 7 8 12 10 7 9 7 6 2 13 11 7 2 12 9 11 2 3 0 1 4 3 3 3 4 5 5 5
16 16 16 16 16 15 13 6 6 4 5 6 4 5 5 2 4 2 2 2 10 1 2 6 8 4 7 3 7 6 5 9 8 5 12 11 8 7 3 8 6 9 9 9 10 7 9 5 11 11 6 5 7 8 5 7 7 5 4 3 6 5 3 4 7 4 5 4 2 6 2 11 13 13 11 7 9 2 2 1 3 1 0 1 3 5 3 0
10 17 17 18 20 18 9 6 5 8 5 6 5 5 4 4 3 2 2 3 10 4 6 3 2 1 3 5 8 5 3 3 7 8 13 8 10 4 6 6 4 4 1 1 2 7 5 8 6 5 8 9 7 9 7 7 5 8 0 2 3 4 5 4 3 2 6 5 9 5 7 7 12 16 8 6 11 3 3 1 4 6 6 7 6 7 5 3
15 10 17 20 22 22 4 5 10 8 3 1 4 6 6 5 3 3 1 4 5 4 4 1 0 3 1 6 9 8 2 0 4 3 4 3 3 3 6 7 8 7 4 4 12 1 5 6 8 6 6 7 11 9 2 9 8 2 1 4 0 2 4 4 3 5 5 5 10 1 4 1 6 11 12 13 4 5 5 5 6 7 6 5 6 6 6 5
13 14 14 20 23 21 6 7 8 8 4 5 4 5 6 5 1 2 3 4 0 4 1 4 5 2 4 3 7 4 1 1 2 4 2 2 2 1 7 9 5 3 7 11 12 2 2 1 4 8 7 9 6 5 5 5 7 2 1 1 2 1 4 4 3 3 4 2 11 3 5 3 9 9 9 2 5 6 6 4 7 8 7 6 5 5 4 5
16 14 10 22 18 11 4 3 4 4 10 8 6 5 7 5 3 4 3 7 2 2 3 2 1 4 4 7 3 5 2 0 4 0 1 2 2 2 1 2 2 5 5 7 13 10 3 3 4 2 5 4 4 1 1 5 2 1 2 2 4 4 4 4 3 2 3 4 12 9 9 5 4 7 7 1 2 4 4 5 5 6 7 5 5 5 5 5
14 15 15 15 12 8 8 7 7 9 9 9 8 8 6 1 3 5 8 6 6 2 3 2 3 8 7 8 2 4 2 2 3 5 3 3 4 3 2 2 1 3 4 6 10 8 10 6 2 3 3 1 3 1 2 3 2 1 0 1 3 6 4 1 1 3 1 5 0 0 10 7 4 8 5 4 9 6 5 5 4 4 4 4 4 5 5 5
13 15 14 6 10 9 13 12 12 10 11 11 10 6 2 4 2 8 9 3 0 2 2 5 4 5 6 3 1 6 4 3 5 5 6 6 7 9 10 8 6 3 8 8 9 3 12 14 7 4 7 7 3 2 0 1 2 2 2 1 1 3 3 2 3 3 6 7 2 0 4 2 11 12 13 15 14 1 5 6 3 2 2 3 2 3 4 4
13 13 16 9 11 7 7 8 14 12 13 11 7 4 3 5 8 11 6 3 3 4 1 3 6 7 5 3 4 6 6 4 6 4 5 4 7 9 8 9 6 5 1 4 10 4 7 10 14 8 2 9 8 8 4 0 5 5 5 5 3 2 3 4 4 3 4 1 1 3 4 4 4 7 11 11 1 5 5 6 5 2 0 2 2 2 3 4
15 13 8 6 6 8 6 15 13 17 15 9 9 3 0 4 8 1 11 7 5 3 4 4 7 5 6 7 4 9 2 4 7 4 6 3 7 8 8 13 11 9 2 3 1 6 3 1 6 11 4 8 13 13 9 3 9 10 5 8 6 3 2 3 3 5 2 1 2 4 0 5 2 5 1 1 5 4 5 5 4 2 1 0 3 2 2 4
17 13 8 8 6 6 12 15 17 19 13 10 7 8 9 12 7 5 6 9 6 2 2 5 8 7 5 4 2 3 5 2 8 6 7 7 6 7 7 9 14 8 4 3 4 2 8 5 2 1 2 9 12 10 4 2 2 6 5 3 3 9 0 4 0 1 2 3 3 3 5 2 5 6 13 5 5 4 5 4 2 3 3 1 3 4 4 3
12 6 6 6 7 6 13 13 17 16 15 11 9 8 14 12 8 5 5 10 4 5 6 2 4 3 4 3 2 6 3 3 5 4 3 8 8 6 8 5 11 16 10 9 2 4 2 5 2 1 2 3 1 2 6 2 3 4 8 7 6 1 1 2 4 1 1 1 9 3 6 5 7 10 16 8 6 5 5 4 2 3 2 0 1 3 4 3
7 7 7 6 9 10 13 14 14 13 13 14 11 15 11 9 12 5 2 5 9 10 8 9 6 8 7 7 8 9 6 5 4 5 4 3 5 11 10 11 9 14 18 10 5 2 3 2 1 2 2 1 1 1 2 3 0 1 3 2 1 2 3 2 2 0 1 6 4 6 6 3 1 6 1 8 5 7 7 7 5 5 5 3 2 2 3 4
7 6 10 13 8 12 14 14 15 11 12 12 15 13 6 16 9 15 1 1 6 9 8 12 4 12 5 8 8 10 7 9 6 6 4 7 6 4 9 5 9 13 18 13 5 4 1 5 3 2 3 2 1 1 2 2 2 1 1 1 3 2 1 3 2 3 2 5 3 4 8 5 7 6 1 4 7 9 7 6 5 5 5 6 4 4 4 4
6 6 9 11 8 14 15 15 13 12 9 11 14 13 10 15 8 7 12 8 2 6 10 9 6 6 9 9 4 6 14 9 10 8 4 4 6 7 11 9 6 14 11 14 9 4 2 4 1 2 1 3 1 2 5 4 0 1 1 4 1 2 2 6 6 3 2 4 1 3 2 5 5 6 8 5 1 11 8 7 6 5 2 2 2 4 3 2
4 4 10 3 13 15 15 14 11 9 11 16 14 16 2 13 13 14 11 10 5 8 8 9 12 6 8 8 9 6 9 10 12 8 8 3 10 3 4 9 4 4 11 15 10 0 4 0 4 1 4 1 1 5 6 11 11 5 1 3 1 2 1 1 3 3 3 2 4 3 5 5 3 1 0 1 5 6 9 8 5 1 0 1 1 1 2 1
5 6 6 6 16 15 16 13 13 16 14 11 15 14 13 10 3 10 11 14 8 4 1 7 7 11 5 3 5 7 6 8 8 9 9 4 9 6 6 9 6 2 3 4 9 3 2 3 8 3 1 6 3 4 8 3 10 11 13 12 12 8 3 3 9 2 3 2 4 3 11 3 4 3 3 4 4 9 6 5 1 1 1 1 1 0 2 1
5 8 6 11 12 21 18 18 11 9 8 12 18 14 9 7 3 3 11 12 13 7 2 3 7 7 7 8 6 5 7 8 10 8 7 12 11 11 1 4 6 10 9 7 10 7 3 1 2 7 5 8 7 1 1 3 2 2 6 6 8 6 3 3 7 4 1 6 1 2 6 7 3 2 3 2 4 4 4 2 0 3 4 3 1 0 1 3
7 12 4 5 17 18 15 16 12 9 11 14 12 15 9 4 9 8 8 9 14 12 8 6 6 7 7 7 8 6 9 4 10 11 7 11 10 10 5 8 9 8 7 2 2 2 4 2 4 7 3 2 2 1 1 1 1 1 3 1 4 11 10 9 6 2 4 1 3 2 9 3 3 1 1 1 1 0 1 1 4 4 4 5 5 7 6 5
8 6 7 8 14 13 13 16 17 17 12 10 11 14 11 11 9 7 11 12 10 7 13 7 5 12 8 5 1 6 8 6 8 13 10 9 6 7 10 11 15 7 9 6 6 5 5 3 4 1 4 2 2 1 2 1 1 3 3 7 8 6 6 6 2 1 4 8 7 7 17 2 4 2 4 3 4 2 3 5 5 5 4 4 5 5 5 4
4 4 7 5 13 16 18 9 14 13 14 15 17 17 14 10 10 15 11 12 9 9 7 12 14 7 10 6 6 4 8 14 4 12 10 5 4 2 7 13 10 10 4 4 9 3 3 3 7 8 12 12 11 9 7 4 9 5 4 7 10 13 9 4 9 5 10 5 12 10 11 2 3 4 5 4 3 3 4 4 3 3 3 6 6 5 5 5
4 7 3 7 9 10 11 9 11 13 17 17 17 18 16 19 8 13 12 12 13 10 14 6 12 13 9 8 6 9 11 9 12 2 6 4 4 1 1 7 9 5 7 13 8 5 1 1 5 11 12 14 10 2 1 4 3 5 7 13 13 13 14 11 5 6 15 2 9 16 10 5 6 3 4 5 3 4 9 11 7 6 6 6 5 4 4 5
2 6 4 9 5 13 8 12 13 9 10 14 16 10 20 20 11 12 13 10 13 15 10 15 8 12 10 11 13 13 12 11 9 4 5 4 0 2 2 3 4 1 11 7 10 5 2 5 15 17 15 17 11 11 8 2 1 3 5 9 14 13 13 15 14 17 3 1 19 8 6 12 12 7 9 7 7 10 12 9 7 5 6 8 8 5 5 6
7 4 9 3 6 4 12 16 13 17 19 11 13 7 20 21 18 16 8 20 8 15 11 7 16 18 17 21 14 13 12 14 11 13 10 11 4 2 0 1 6 6 8 4 8 8 7 13 17 10 18 20 17 18 16 15 12 7 5 7 11 12 12 17 20 15 8 11 16 5 10 13 10 10 11 14 9 11 10 9 10 10 7 6 6 6 6 7
6 2 5 1 6 2 9 4 16 17 18 20 13 11 18 19 23 20 13 7 10 13 15 14 17 21 20 16 15 13 13 12 12 13 12 10 15 8 6 1 5 4 5 3 4 3 6 11 15 9 15 16 18 19 14 14 16 15 14 13 9 12 17 19 18 17 18 18 17 15 12 14 7 6 7 9 11 8 8 8 6 9 12 8 5 6 7 7
5 4 4 1 5 7 9 7 8 10 19 18 18 18 16 14 19 13 16 15 15 16 15 23 17 16 19 18 19 19 17 18 14 16 14 16 11 11 12 13 4 3 5 7 5 2 9 10 12 8 10 17 19 13 10 13 8 13 15 16 19 19 16 16 15 13 14 17 20 16 17 22 12 6 11 9 10 11 12 15 15 11 10 10 7 5 5 6
3 3 3 8 9 5 7 8 8 12 13 11 14 13 15 24 21 17 15 13 21 14 11 23 17 17 16 21 24 24 17 16 15 18 14 17 17 15 14 6 12 8 8 5 3 3 8 3 2 7 11 14 15 12 13 9 9 12 19 22 23 21 21 18 14 10 10 17 12 10 18 21 3 9 13 5 8 13 15 13 12 10 7 7 5 3 5 6
2 1 2 2 8 6 10 7 10 9 11 7 12 11 12 19 18 13 18 16 20 17 14 16 18 17 14 20 26 23 17 15 15 15 15 13 15 10 11 6 16 13 10 11 5 7 8 6 7 6 11 14 12 8 13 9 9 13 24 34 27 21 21 13 14 16 18 15 14 17 22 15 8 6 5 5 7 11 10 9 8 6 5 1 3 6 12 13
Wind_Direction
256 265 268 281 274 272 274 278 291 301 302 306 313 319 321 320 322 325 329 332 334 336 333 329 329 327 327 327 326 326 326 316 303 294 272 252 247 127 117 125 147 142 165 206 228 234 247 246 251 196 213 232 220 236 236 245 174 235 231 231 250 258 260 270 270 275 293 295 303 300 300 306 304 297 281 315 290 285 285 277 270 246 248 270 276 280 286 269
259 255 260 273 285 270 272 274 285 298 304 312 316 320 321 324 329 328 329 327 329 330 332 328 328 327 327 326 328 326 326 304 289 281 257 252 137 140 126 139 150 161 178 226 231 224 257 279 280 306 244 246 188 249 225 212 173 211 242 247 257 253 264 275 279 284 293 290 298 294 297 286 280 298 288 283 281 288 284 282 288 280 254 234 235 238 253 266
252 251 257 262 275 277 272 271 274 279 296 304 311 325 330 330 327 327 328 330 328 331 330 331 329 328 327 328 326 327 321 303 287 266 274 131 145 135 129 145 165 171 187 227 235 288 279 290 301 284 267 266 247 262 195 232 131 202 233 252 255 264 276 275 277 283 287 298 287 284 283 289 285 277 296 275 279 274 269 273 274 273 271 266 264 274 260 240
256 251 246 263 266 278 267 269 268 277 285 298 299 313 318 320 323 326 325 328 331 331 332 331 330 329 326 326 326 324 309 290 273 178 71 168 130 133 133 158 176 184 222 250 284 279 292 294 277 263 265 251 267 246 268 248 172 203 233 242 258 256 265 268 290 298 306 303 291 284 296 279 266 265 270 274 275 260 267 270 274 276 281 285 283 276 274 263
245 249 249 249 274 270 265 266 274 275 268 278 294 305 318 314 314 315 324 327 330 331 335 332 331 326 328 322 321 324 310 296 340 68 92 130 127 129 141 169 183 192 216 246 247 263 273 278 270 253 242 263 252 244 240 244 216 251 248 261 264 294 305 293 282 278 269 266 267 274 280 281 295 277 262 264 257 259 256 263 262 267 271 269 274 263 267 263
263 265 260 249 236 243 253 257 264 267 288 312 313 312 309 311 310 317 317 324 322 325 330 331 327 329 324 323 310 297 298 288 105 120 161 127 132 137 155 174 197 216 215 245 254 258 251 252 241 241 238 234 240 251 251 227 215 249 239 236 234 249 263 273 284 287 298 298 301 292 275 283 271 279 275 267 264 268 259 257 255 259 271 280 276 275 278 282
263 268 265 232 224 235 231 238 235 231 240 286 303 309 302 306 315 315 318 320 327 330 334 330 329 326 329 316 293 263 238 258 326 111 150 149 137 152 164 183 200 232 228 241 234 258 233 255 247 256 268 263 253 257 256 264 254 266 279 301 287 271 272 286 281 277 274 280 276 275 283 271 271 269 262 257 254 260 256 256 263 262 262 266 273 272 270 271
254 259 264 231 221 236 242 237 224 219 234 267 299 320 311 303 305 314 318 320 324 323 332 330 329 328 330 326 320 236 227 249 256 160 154 137 149 148 167 188 187 209 220 229 247 219 266 267 260 269 260 254 276 277 297 296 280 267 271 272 280 274 260 259 272 279 282 277 276 274 268 260 260 267 273 260 263 261 262 262 262 260 257 256 256 258 258 258
251 250 256 254 231 232 234 239 231 234 233 260 281 286 305 313 305 309 314 320 320 322 325 326 326 327 323 304 298 304 261 248 245 150 147 151 164 162 181 199 195 201 220 231 241 273 259 249 265 259 271 279 285 293 302 302 262 252 266 272 283 294 299 293 289 281 275 276 272 272 266 269 260 261 259 260 261 261 261 260 259 256 254 254 253 251 250 250
247 249 252 250 241 226 231 231 231 233 244 252 279 296 299 302 305 306 308 312 316 315 318 323 321 325 319 305 269 254 283 322 108 152 163 172 177 169 205 235 178 210 227 230 243 234 236 253 275 22 360 307 281 272 280 264 270 294 289 286 284 287 293 286 277 276 273 270 272 270 269 265 258 257 269 255 253 255 253 252 251 251 253 255 255 254 252 250
243 241 243 244 231 223 234 237 237 237 244 259 285 296 306 302 308 306 305 309 315 315 314 316 324 321 307 260 226 239 118 349 350 129 200 195 191 194 208 229 195 214 229 252 236 233 244 257 287 342 295 249 287 277 265 280 320 282 282 287 281 286 279 275 272 267 265 265 254 253 258 255 247 234 252 270 265 259 257 251 250 250 249 248 247 248 247 247
241 244 239 241 243 243 242 245 243 242 243 262 283 293 299 301 298 301 300 304 306 310 317 316 314 312 264 266 240 220 35 53 336 37 226 203 198 210 224 225 206 227 238 253 245 204 249 284 3 144 248 35 249 310 264 357 314 301 308 293 284 275 270 264 260 257 247 257 245 255 277 261 245 245 248 252 255 258 252 252 256 258 253 248 249 247 243 244
238 243 250 244 240 243 242 242 237 235 246 270 296 299 306 309 309 303 298 300 306 310 310 308 303 273 287 267 242 244 274 288 325 327 286 216 224 205 39 347 302 265 302 275 292 359 271 210 136 265 250 277 282 267 323 318 298 291 264 265 282 282 267 263 260 249 241 232 244 76 289 233 226 236 248 253 255 245 241 248 251 246 247 250 251 248 245 244
236 235 238 242 244 238 235 231 227 238 265 281 289 298 286 293 300 309 309 297 298 294 301 293 289 255 250 242 288 351 238 246 254 232 235 228 222 197 200 203 9 357 65 356 17 22 350 359 323 260 290 271 269 340 311 294 284 268 268 257 261 277 276 263 305 329 217 109 116 141 251 276 244 264 262 252 254 276 285 246 233 234 237 241 240 243 244 242
233 232 231 231 229 231 229 222 219 231 244 272 280 315 324 307 303 287 291 297 289 292 289 291 253 266 235 265 225 248 254 268 262 239 213 219 202 185 205 170 159 196 27 25 339 36 30 331 233 254 253 224 248 268 272 269 267 258 281 253 245 251 272 300 286 276 284 122 239 192 258 266 275 261 260 273 276 274 270 272 266 259 250 240 237 237 236 235
232 227 225 221 220 218 211 211 219 222 221 246 276 282 297 305 296 294 283 282 293 288 273 249 246 226 294 287 247 74 144 194 230 229 224 216 202 212 185 176 150 145 138 199 97 182 280 189 215 258 264 258 215 248 264 278 249 236 228 261 256 263 310 318 289 335 324 325 193 198 269 292 282 259 268 262 268 268 264 259 261 263 261 256 250 245 247 249
228 229 223 214 210 207 203 208 204 201 199 201 272 269 285 285 276 273 287 286 287 280 232 257 201 197 263 131 344 272 216 207 282 185 202 210 205 221 139 147 159 165 199 118 217 156 184 196 202 253 229 248 229 250 286 267 271 259 226 257 316 309 316 293 319 296 127 183 256 242 260 263 271 285 281 273 263 263 262 261 254 249 250 254 254 252 250 245
220 223 221 212 205 206 207 204 187 191 185 188 207 279 273 290 289 283 279 255 232 247 250 237 270 256 253 228 252 235 88 111 191 176 178 180 206 206 212 158 166 166 157 178 191 201 164 206 196 249 221 201 226 232 222 251 249 303 330 311 301 311 293 288 296 320 301 267 261 262 264 280 284 286 286 285 280 272 269 269 268 262 253 244 242 242 243 245
213 211 208 203 198 207 207 198 186 192 194 195 230 252 267 259 259 251 247 196 177 180 197 198 183 180 290 199 203 137 73 76 67 131 167 155 189 207 177 191 163 163 182 194 188 179 160 253 201 235 236 209 210 209 218 240 268 279 291 298 295 294 295 287 291 292 280 286 290 290 285 289 290 290 291 289 281 267 266 264 258 254 251 255 250 241 239 241
215 210 208 200 198 200 197 200 190 184 178 198 284 308 304 225 197 216 206 210 223 211 299 170 204 286 342 104 137 63 75 252 156 237 152 177 145 184 177 184 178 206 205 200 137 200 145 197 210 216 223 221 229 220 229 244 259 266 272 288 286 283 280 281 278 288 308 328 286 295 288 284 283 286 288 287 289 283 266 263 260 255 252 249 250 250 245 241
213 212 207 200 193 198 191 198 192 182 169 231 284 289 286 357 302 266 86 236 233 252 263 262 202 224 240 71 126 156 157 208 246 171 171 174 165 142 183 170 184 202 212 220 156 172 174 229 230 224 224 231 242 248 248 260 261 262 276 280 280 273 276 284 293 297 47 351 292 293 287 284 285 288 287 287 286 274 262 255 251 251 246 241 239 240 238 243
211 209 204 199 197 199 192 192 186 180 178 216 257 228 268 340 28 178 258 285 233 228 236 250 260 253 250 250 201 200 275 244 199 180 155 180 173 176 170 186 182 205 185 212 215 126 215 231 235 229 238 240 243 255 262 263 277 272 263 277 276 271 281 278 270 305 164 235 287 303 301 294 291 288 285 283 272 271 227 211 292 311 316 307 297 262 246 255
208 205 199 194 194 188 183 183 180 164 167 169 208 237 251 324 123 22 307 273 273 240 230 222 236 240 250 242 223 127 216 219 214 175 175 191 171 229 157 190 198 207 201 187 206 193 237 242 236 235 240 243 250 243 247 277 255 255 264 255 256 272 298 301 297 337 326 328 296 305 301 295 290 285 273 283 236 102 66 56 292 9 354 341 324 324 317 304
207 200 195 190 182 185 178 180 178 181 192 176 190 218 242 98 178 322 267 259 293 221 201 212 213 207 223 206 183 184 207 226 205 210 173 177 178 196 204 191 196 202 217 202 206 217 223 192 95 240 212 223 238 235 219 228 250 237 232 245 262 271 264 262 300 320 311 284 277 331 309 287 260 324 328 313 309 84 145 236 294 248 232 247 286 313 285 255
207 198 190 184 178 175 179 169 180 207 169 190 222 211 250 226 196 203 281 283 229 258 204 236 177 227 228 110 138 182 216 249 216 166 171 179 171 145 224 184 207 224 212 218 230 230 245 242 287 222 219 230 228 233 223 206 254 253 226 224 246 262 272 281 322 331 319 318 164 28 342 303 338 326 303 294 310 98 313 200 237 232 217 209 236 238 238 235
220 198 188 178 168 164 158 175 211 158 167 205 190 200 214 176 214 244 275 297 289 161 70 220 143 261 119 185 145 183 84 236 193 208 158 195 184 179 138 217 188 225 213 220 231 239 246 209 215 235 217 219 213 229 206 173 241 265 259 213 246 266 325 334 308 341 301 303 304 23 202 284 308 307 300 300 300 187 222 250 296 188 257 216 272 251 178 327
289 209 188 170 164 151 152 225 135 133 177 235 178 137 92 99 34 48 274 251 280 150 157 20 251 345 348 141 149 138 230 304 139 138 166 186 199 195 233 211 187 243 342 227 227 244 200 217 230 205 212 217 222 232 214 199 217 256 252 208 256 283 274 275 295 260 253 281 282 239 198 240 297 298 288 282 293 192 190 344 20 13 18 11 6 11 25 24
349 252 192 168 166 166 190 122 142 167 176 65 112 124 125 117 113 110 163 346 273 87 104 182 200 302 16 168 171 176 7 192 146 216 144 150 217 196 228 224 207 193 191 188 227 37 183 198 202 199 212 216 224 225 204 194 210 240 33 27 71 324 305 301 284 268 264 316 296 239 164 243 245 267 293 288 290 31 342 19 18 6 12 7 4 4 7 360
339 339 216 172 172 174 138 153 164 176 127 129 102 118 110 113 73 78 52 233 206 86 46 92 280 108 97 163 204 191 157 213 344 81 49 21 290 30 215 241 271 251 198 208 240 208 13 299 197 209 198 226 226 238 221 212 228 127 147 145 237 242 251 237 238 269 300 310 271 232 180 209 279 270 288 284 58 357 334 18 26 14 0 4 7 359 1 359
334 335 302 189 178 162 146 128 165 105 125 125 135 120 103 114 108 81 70 247 11 284 61 140 184 162 138 158 200 224 260 82 49 263 135 190 153 322 313 343 273 269 262 225 238 250 266 118 41 159 229 233 205 213 199 220 173 139 20 344 287 251 225 222 239 256 300 243 252 233 193 164 299 279 256 51 10 310 312 35 24 21 8 2 17 33 18 2
327 322 332 209 192 180 135 175 154 146 132 130 137 140 138 53 123 129 211 232 12 172 113 170 100 121 163 162 162 181 272 160 127 129 171 234 193 233 276 210 195 320 273 275 255 234 244 236 174 215 208 344 92 146 28 60 67 93 53 283 334 294 213 135 221 135 209 265 279 103 163 170 176 280 282 330 325 327 84 70 41 36 356 4 43 50 44 30
322 321 321 295 209 135 176 189 153 148 145 145 148 144 208 102 307 178 220 88 98 140 145 148 143 158 174 223 279 162 180 172 146 177 176 191 195 193 210 206 156 163 252 217 257 191 239 225 214 192 185 165 213 118 243 64 84 134 169 254 94 284 9 256 132 246 208 234 223 191 117 289 239 247 278 289 288 28 100 120 96 70 7 342 26 62 54 42
316 309 309 303 239 196 212 119 138 143 146 162 137 164 155 157 221 220 237 165 244 115 239 94 164 162 162 173 247 155 198 222 139 187 186 196 214 217 218 232 203 202 238 190 214 211 258 211 206 196 108 205 182 184 163 246 191 164 166 162 143 221 197 245 222 218 243 159 277 152 213 248 261 277 245 260 304 128 130 131 131 134 321 334 342 20 49 46
305 307 302 279 269 218 153 141 145 147 150 168 135 110 306 194 237 200 208 218 191 99 114 139 129 157 167 176 209 151 186 218 141 195 199 211 214 229 211 225 242 253 204 310 210 194 269 348 217 151 245 172 201 212 188 168 162 202 176 175 197 187 193 236 187 215 227 241 198 222 136 237 134 232 250 43 128 139 146 133 171 186 198 308 330 332 19 34
300 299 287 276 259 209 154 151 156 153 146 140 153 174 181 226 240 210 204 209 243 166 113 157 150 144 210 211 299 168 153 203 160 162 195 215 219 223 221 205 222 237 271 256 228 214 223 251 323 327 318 154 197 207 212 232 122 191 178 183 259 235 200 211 50 16 309 349 322 194 200 230 204 297 302 298 121 107 117 138 179 205 140 294 319 340 355 17
301 280 279 267 248 158 162 158 159 156 141 154 164 202 210 198 224 149 245 187 182 197 160 97 161 159 176 177 192 191 190 119 180 131 228 224 244 235 214 218 199 203 206 201 186 196 230 244 111 159 320 147 171 39 209 187 194 214 144 205 204 350 174 303 335 76 99 95 246 182 280 269 276 277 263 269 125 125 147 168 197 221 229 166 290 320 327 334
273 295 261 246 236 156 164 163 161 157 151 167 185 215 209 244 220 210 231 187 182 178 158 192 205 189 180 210 177 175 204 92 220 143 225 160 266 236 235 228 197 192 213 194 275 240 212 234 286 128 223 9 43 19 326 8 71 87 179 238 357 21 105 127 217 314 198 231 259 153 237 276 245 310 236 125 135 151 177 185 198 212 216 201 235 286 305 311
286 269 271 258 234 153 161 171 162 164 161 181 209 220 190 236 201 219 187 139 176 185 177 197 255 167 193 177 194 168 182 165 186 152 218 175 254 180 197 236 203 210 206 214 215 281 76 269 197 290 60 95 36 78 356 289 91 154 218 319 122 229 243 249 100 270 219 247 273 225 246 240 181 224 245 200 150 179 183 199 195 226 221 213 220 243 258 289
274 286 268 238 200 153 163 173 167 167 168 195 206 229 221 238 224 212 206 215 242 179 199 214 204 206 184 210 175 150 161 192 163 181 145 203 236 185 193 184 222 211 198 189 233 254 356 215 324 273 68 147 51 128 186 202 148 68 344 316 211 63 236 156 199 221 165 254 200 272 181 264 182 209 224 230 152 164 177 188 210 224 158 138 197 226 236 262
264 253 249 205 147 151 159 167 178 180 188 204 201 226 131 237 225 224 204 200 220 190 216 204 211 217 210 221 176 165 198 171 164 199 189 202 225 250 208 186 189 213 187 188 209 196 254 87 270 119 317 96 222 190 208 171 181 220 199 265 237 215 231 95 298 199 178 213 219 253 269 266 248 193 306 301 288 181 161 188 192 156 71 136 11 278 226 248
223 249 276 138 145 146 151 175 189 196 205 218 219 223 225 234 200 218 204 218 230 253 203 232 196 216 187 150 237 157 171 181 186 184 192 235 206 244 176 178 172 151 134 159 213 223 200 224 236 128 255 215 248 177 202 192 200 193 184 202 191 170 173 198 263 160 244 141 233 205 254 192 263 25 22 340 247 153 160 141 154 254 248 235 248 313 89 65
216 237 251 142 144 145 158 189 206 194 216 201 211 203 227 217 321 184 206 210 229 233 221 235 242 226 210 217 188 185 155 187 187 195 206 206 212 215 283 98 135 144 144 181 201 211 151 346 309 233 208 208 227 193 143 142 110 179 186 217 188 218 195 175 233 247 191 248 8 235 308 228 251 309 336 357 11 86 101 105 199 256 257 272 252 155 76 56
224 240 4 98 159 165 164 203 199 214 226 225 238 237 242 270 233 208 211 190 216 212 229 237 213 238 228 221 209 198 170 212 180 207 204 221 226 213 170 144 136 139 113 244 41 281 124 218 251 274 335 356 332 181 100 89 128 327 269 240 179 209 201 212 216 189 201 224 191 253 248 225 131 238 249 294 155 252 128 168 230 255 293 296 323 357 6 13
242 255 251 172 177 179 187 197 197 213 222 232 234 244 225 237 233 226 220 198 209 176 213 213 235 232 238 205 133 205 181 232 202 205 229 214 240 169 152 154 152 163 146 219 152 207 126 213 178 294 280 238 353 342 319 327 68 211 194 195 215 226 222 234 262 32 260 208 187 157 246 154 229 210 240 215 263 197 225 237 216 256 289 302 332 344 356 1
253 253 239 217 195 186 213 198 218 221 219 219 226 230 234 242 225 238 226 222 206 212 195 221 213 199 223 178 214 174 209 211 215 219 218 201 228 66 174 164 178 168 174 139 134 188 138 179 156 198 219 227 228 208 207 221 225 220 217 203 208 212 214 188 228 189 242 190 180 225 242 130 185 248 265 244 232 245 235 227 230 203 274 322 333 340 346 348
219 240 202 208 199 231 245 244 250 225 222 220 232 232 225 236 228 236 222 239 208 212 219 213 221 221 224 198 210 204 217 232 211 153 187 203 211 29 278 195 196 180 176 147 133 100 153 213 214 212 219 233 239 46 214 129 90 182 215 195 212 210 212 214 233 220 221 172 211 230 233 253 254 217 242 253 283 302 309 303 314 326 320 310 310 318 331 322
284 250 181 237 173 225 227 229 232 251 235 213 226 204 228 229 227 244 199 248 199 214 221 219 201 203 209 209 217 224 219 224 237 245 216 188 175 155 342 235 260 343 164 147 151 106 125 231 227 227 233 246 249 269 283 144 262 245 204 215 214 210 206 209 211 227 161 291 254 225 203 236 235 250 265 261 298 292 278 283 300 301 305 302 301 316 327 324
240 239 240 285 285 203 211 229 230 235 245 243 249 219 227 221 215 229 196 230 206 216 215 223 222 217 208 208 202 222 209 228 205 223 223 232 201 192 60 251 213 201 175 188 164 156 177 230 236 214 241 245 250 251 265 282 271 276 255 219 215 216 209 212 225 232 212 218 243 112 201 228 234 220 233 261 265 264 280 293 294 300 297 300 311 320 317 308
250 318 296 30 261 244 246 280 234 234 242 238 249 229 245 226 222 216 215 226 216 229 208 229 214 214 221 213 213 226 201 218 220 218 216 218 218 196 202 213 241 170 170 144 205 148 162 235 242 198 244 253 247 246 248 258 270 275 271 264 247 223 221 219 224 220 219 236 248 258 261 247 214 219 221 235 257 266 276 280 282 290 294 297 307 303 305 302
250 248 254 238 260 287 293 272 268 258 244 229 238 230 239 246 247 222 220 214 226 225 206 233 219 216 215 218 218 223 212 216 205 213 210 216 224 203 225 205 117 158 165 193 174 270 187 233 219 200 236 244 246 243 230 231 239 252 259 257 251 249 243 229 228 227 227 243 245 253 260 261 236 251 262 255 272 281 287 285 286 287 288 297 293 286 297 295
260 275 134 285 292 248 245 257 258 258 261 242 243 245 245 241 239 230 243 233 235 221 202 229 224 229 218 220 225 228 223 226 223 222 207 203 217 202 204 181 155 161 178 175 167 228 202 276 106 182 223 246 239 228 232 224 237 257 263 253 244 236 240 237 232 228 217 237 241 246 253 252 191 200 249 237 245 264 267 271 280 280 266 266 289 317 311 316
214 332 190 200 263 291 288 283 272 273 255 251 254 255 248 251 250 250 253 224 229 231 221 223 217 225 225 226 227 227 225 231 232 232 235 224 224 229 213 171 183 169 174 190 167 181 187 200 211 194 223 242 244 186 233 229 239 255 246 241 238 237 237 248 247 239 227 227 236 235 244 251 229 211 232 219 217 244 261 268 281 313 306 300 343 0 15 19